Location: La Tine
(46.4708°N, 7.0525°E)
Time: 07:51:06
(UTC+00:00)

HJ-1C - Pass Details

Date: 13 August 2021
Orbit: 423 x 438 km, 97.1° (Epoch: 25 September)

Event Time Altitude Azimuth Distance (km) Brightness Sun altitude
Rises 19:10:10 0° 198° (SSW) 2,407 7.0 -4.8°
Reaches altitude 10° 19:12:31 10° 215° (SW) 1,548 6.2 -5.2°
Maximum altitude 19:15:05 21° 266° (W) 1,058 6.2 -5.6°
Drops below altitude 10° 19:17:41 10° 317° (NW) 1,564 7.6 -6.0°
Sets 19:20:05 0° 334° (NNW) 2,442 8.1 -6.4°
